Location: Franzen
(48.6167°N, 15.3833°E)
Time: 23:56:27
(UTC+00:00)

Cosmos 2219 - Pass Details

Date: 05 August 2021
Orbit: 834 x 859 km, 71.1° (Epoch: 22 September)

Event Time Altitude Azimuth Distance (km) Brightness Sun altitude
Exits shadow 22:48:48 33° 243° (WSW) 1,403 4.1 -24.6°
Maximum altitude 22:51:10 55° 303° (WNW) 1,027 3.7 -24.6°
Drops below altitude 10° 22:56:50 10° 22° (NNE) 2,506 6.5 -24.7°
Sets 22:59:22 0° 27° (NNE) 3,446 7.4 -24.7°
